Regional Weather Roundup
Issued by NWS Cleveland, OH

Home | Current Version | Previous Version | Text Only | Print | Product List | Glossary Off
Versions: 1 2 3 4 5 6 7 8 9 10 11 12 13 14 15 16 17 18 19 20 21 22 23 24 25 26 27 28 29 30 31 32 33 34 35 36 37 38 39 40 41 42 43 44 45 46 47 48 49 50

444
ASUS41 KCLE 220610
RWRCLE
OHIO REGIONAL WEATHER ROUNDUP
NATIONAL WEATHER SERVICE WILMINGTON, OH
200 AM EDT TUE MAY 22 2018

NOTE: "FAIR" INDICATES FEW OR NO CLOUDS BELOW 12,000 FEET WITH NO
SIGNIFICANT WEATHER AND/OR OBSTRUCTIONS TO VISIBILITY.

OHZ001>008-015>018-024>027-034-035-043-044-220700-
   NORTHWEST OHIO

CITY           SKY/WX    TMP DP  RH WIND       PRES   REMARKS
DEFIANCE       FAIR      56  53  90 CALM      30.01F
FINDLAY        CLOUDY    64  63  96 SE6       30.01F
TOLEDO EXPRESS CLOUDY    56  56 100 CALM      30.01F
TOLEDO EXEC    CLOUDY    57  53  86 CALM      30.02F
LIMA           MOCLDY    65  64  97 S9        30.02F
$$

OHZ009>014-019>023-028>033-038-089-220700-
   NORTHEAST OHIO

CITY           SKY/WX    TMP DP  RH WIND       PRES   REMARKS
CLE-HOPKINS    LGT RAIN  66  64  93 S10       30.05F
CLE-LAKEFRONT  LGT RAIN  65  62  90 S6        30.02F
CUY CO. ARPT   NOT AVBL
LORAIN-ELYRIA  LGT RAIN  64  59  83 S13       30.04F
ASHTABULA      LGT RAIN  61  60  97 S7        30.05F
AKRON-CANTON   LGT RAIN  65  62  90 S6        30.08F
WOOSTER        LGT RAIN  64  63  96 S7        30.08F
MANSFIELD      LGT RAIN  64  64 100 S9        30.06F
YOUNGSTOWN     TSTM      64  63  96 S7        30.07S
$$

OHZ042-051>053-060>062-070>072-077>081-220700-
  SOUTHWEST OHIO

CITY           SKY/WX    TMP DP  RH WIND       PRES   REMARKS
CINC-COVINGTON LGT RAIN  67  65  93 S7        30.03F
CINC-LUNKEN    RAIN      68  68 100 SW6       30.05F FOG
HAMILTON       CLOUDY    69  68  96 VRB3      30.04F
DAYTON         CLOUDY    66  66 100 SE9       30.04F
WRIGHT-PAT AFB CLOUDY    67  65  95 CALM      30.03F
DAYTON GENERAL CLOUDY    68  64  87 S5        30.03F
WILMINGTON     CLOUDY    66  66 100 SE5       30.05F
$$

OHZ036-037-039>041-045>050-054>059-063>069-073>076-082>088-220700-
  CENTRAL AND SOUTHEAST OHIO

CITY           SKY/WX    TMP DP  RH WIND       PRES   REMARKS
COLUMBUS       LGT RAIN  66  65  96 SE6       30.05F
OSU AIRPORT    LGT RAIN  66  65  96 SE8       30.04F
BOLTON FIELD   LGT RAIN  65  65  99 SE3       30.06F
RICKENBACK AFB LGT RAIN  64  64 100 MISG      30.05F
NEWARK         LGT RAIN  65  64  97 S5        30.07F FOG
MARION         CLOUDY    65  64  97 S10       30.04F
LANCASTER      LGT RAIN  65  64  97 E5        30.08F
ZANESVILLE     LGT RAIN  65  63  93 S3        30.09S
NEW PHILLY     LGT RAIN  65  64  97 SE7       30.09F
$$




USA.gov is the U.S. government's official web portal to all federal, state and local government web resources and services.